TimeICT,TemperatureF,Dew PointF,Humidity,Sea Level PressureIn,VisibilityMPH,Wind Direction,Wind SpeedMPH,Gust SpeedMPH,PrecipitationIn,Events,Conditions,WindDirDegrees,DateUTC
12:00 AM,78.8,71.6,78,29.89,6.2,SSW,3.5,-,N/A,,Mostly Cloudy,210,2012-10-05 17:00:00
12:30 AM,78.8,71.6,78,29.89,6.2,Calm,Calm,-,N/A,,Mostly Cloudy,0,2012-10-05 17:30:00
1:00 AM,78,71,73,29.88,6,ESE,2.3,,,,Scattered Clouds,110,2012-10-05 18:00:00
1:00 AM,78.8,71.6,78,29.89,6.2,Calm,Calm,-,N/A,,Mostly Cloudy,0,2012-10-05 18:00:00
1:30 AM,77.0,69.8,78,29.86,6.2,SE,3.5,-,N/A,,Mostly Cloudy,130,2012-10-05 18:30:00
2:00 AM,77.0,69.8,78,29.86,6.2,SE,2.3,-,N/A,,Mostly Cloudy,140,2012-10-05 19:00:00
2:30 AM,77.0,69.8,78,29.86,6.2,South,4.6,-,N/A,,Mostly Cloudy,170,2012-10-05 19:30:00
3:00 AM,77.0,71.6,83,29.86,6.2,ENE,2.3,-,N/A,,Mostly Cloudy,60,2012-10-05 20:00:00
3:30 AM,75.2,69.8,83,29.86,6.2,ENE,2.3,-,N/A,,Mostly Cloudy,60,2012-10-05 20:30:00
4:00 AM,75.2,69.8,83,29.83,6.2,Calm,Calm,-,N/A,,Mostly Cloudy,0,2012-10-05 21:00:00
4:30 AM,75.2,69.8,83,29.83,6.2,Calm,Calm,-,N/A,,Mostly Cloudy,0,2012-10-05 21:30:00
5:00 AM,75.2,69.8,83,29.83,6.2,Calm,Calm,-,N/A,,Mostly Cloudy,0,2012-10-05 22:00:00
5:30 AM,75.2,69.8,83,29.86,6.2,Calm,Calm,-,N/A,,Mostly Cloudy,0,2012-10-05 22:30:00
6:00 AM,75.2,69.8,83,29.86,6.2,Calm,Calm,-,N/A,,Mostly Cloudy,0,2012-10-05 23:00:00
6:30 AM,75.2,71.6,89,29.86,6.2,Calm,Calm,-,N/A,,Mostly Cloudy,0,2012-10-05 23:30:00
7:00 AM,77,71,77,29.88,6,South,3.5,,,,Scattered Clouds,180,2012-10-06 00:00:00
7:00 AM,77.0,73.4,89,29.89,6.2,South,4.6,-,N/A,,Mostly Cloudy,170,2012-10-06 00:00:00
7:30 AM,78.8,75.2,89,29.89,6.2,South,2.3,-,N/A,,Mostly Cloudy,190,2012-10-06 00:30:00
8:00 AM,82.4,77.0,84,29.89,6.2,SE,2.3,-,N/A,,Mostly Cloudy,140,2012-10-06 01:00:00
8:30 AM,84.2,77.0,79,29.89,6.2,SW,4.6,-,N/A,,Mostly Cloudy,230,2012-10-06 01:30:00
9:00 AM,86.0,78.8,79,29.89,6.2,South,3.5,-,N/A,,Mostly Cloudy,190,2012-10-06 02:00:00
9:30 AM,87.8,78.8,75,29.89,6.2,WSW,5.8,-,N/A,,Mostly Cloudy,250,2012-10-06 02:30:00
10:00 AM,87.8,78.8,75,29.92,6.2,WNW,5.8,-,N/A,,Mostly Cloudy,300,2012-10-06 03:00:00
10:30 AM,89.6,78.8,70,29.89,6.2,WNW,6.9,-,N/A,,Scattered Clouds,290,2012-10-06 03:30:00
11:00 AM,91.4,80.6,71,29.89,6.2,West,9.2,-,N/A,,Mostly Cloudy,260,2012-10-06 04:00:00
11:30 AM,91.4,77.0,63,29.86,6.2,WNW,12.7,-,N/A,,Mostly Cloudy,290,2012-10-06 04:30:00
12:00 PM,91.4,75.2,59,29.86,6.2,West,10.4,-,N/A,,Mostly Cloudy,270,2012-10-06 05:00:00
12:30 PM,93.2,77.0,59,29.86,6.2,West,11.5,-,N/A,,Mostly Cloudy,270,2012-10-06 05:30:00
1:00 PM,92,74,47,29.84,6,West,11.5,,,,Partly Cloudy,270,2012-10-06 06:00:00
1:00 PM,91.4,75.2,59,29.83,6.2,West,11.5,-,N/A,,Mostly Cloudy,270,2012-10-06 06:00:00
1:30 PM,91.4,73.4,55,29.80,6.2,WSW,12.7,-,N/A,,Mostly Cloudy,250,2012-10-06 06:30:00
2:00 PM,91.4,71.6,52,29.80,6.2,WSW,12.7,-,N/A,,Mostly Cloudy,250,2012-10-06 07:00:00
2:30 PM,91.4,71.6,52,29.80,6.2,West,13.8,-,N/A,,Mostly Cloudy,280,2012-10-06 07:30:00
3:00 PM,93.2,69.8,46,29.77,6.2,West,17.3,-,N/A,,Mostly Cloudy,280,2012-10-06 08:00:00
3:30 PM,93.2,68.0,44,29.77,6.2,West,15.0,-,N/A,,Mostly Cloudy,270,2012-10-06 08:30:00
4:00 PM,89.6,66.2,46,29.77,6.2,WSW,10.4,-,N/A,,Mostly Cloudy,240,2012-10-06 09:00:00
4:30 PM,89.6,66.2,46,29.77,6.2,WSW,6.9,-,N/A,,Mostly Cloudy,250,2012-10-06 09:30:00
5:00 PM,87.8,66.2,49,29.77,6.2,SW,5.8,-,N/A,,Mostly Cloudy,220,2012-10-06 10:00:00
5:30 PM,86.0,68.0,55,29.80,6.2,SW,5.8,-,N/A,,Mostly Cloudy,230,2012-10-06 10:30:00
6:00 PM,84.2,66.2,55,29.80,6.2,SW,4.6,-,N/A,,Mostly Cloudy,230,2012-10-06 11:00:00
6:30 PM,84.2,69.8,62,29.83,6.2,WSW,5.8,-,N/A,,Mostly Cloudy,250,2012-10-06 11:30:00
7:00 PM,82,69,55,29.86,6,WSW,6.9,,,,Scattered Clouds,240,2012-10-06 12:00:00
7:00 PM,82.4,69.8,66,29.86,6.2,WSW,6.9,-,N/A,,Mostly Cloudy,240,2012-10-06 12:00:00
7:30 PM,82.4,69.8,66,29.86,6.2,SW,5.8,-,N/A,,Mostly Cloudy,230,2012-10-06 12:30:00
8:00 PM,82.4,69.8,66,29.86,6.2,WSW,6.9,-,N/A,,Mostly Cloudy,240,2012-10-06 13:00:00
8:30 PM,80.6,69.8,70,29.89,6.2,SW,6.9,-,N/A,,Mostly Cloudy,230,2012-10-06 13:30:00
9:00 PM,80.6,69.8,70,29.89,6.2,SW,3.5,-,N/A,,Mostly Cloudy,220,2012-10-06 14:00:00
9:30 PM,80.6,69.8,70,29.92,6.2,East,3.5,-,N/A,,Mostly Cloudy,90,2012-10-06 14:30:00
10:00 PM,78.8,69.8,74,29.89,6.2,Calm,Calm,-,N/A,,Mostly Cloudy,0,2012-10-06 15:00:00
10:30 PM,80.6,71.6,74,29.89,6.2,Calm,Calm,-,N/A,,Mostly Cloudy,0,2012-10-06 15:30:00
11:00 PM,78.8,71.6,78,29.89,6.2,Calm,Calm,-,N/A,,Mostly Cloudy,0,2012-10-06 16:00:00
11:30 PM,78.8,69.8,74,29.89,6.2,Calm,Calm,-,N/A,,Mostly Cloudy,0,2012-10-06 16:30:00